Starlink 5550

operational
NORAD ID: 56361 Int'l Des: 2023-058 Owner: SPXS Country: US Constellation: starlink
LEOCIRCULARRETROGRADESSO

Über Starlink 5550

Beschreibung wird geladen...

Live-Position

3D-Globus wird geladen...

Nächste Überflüge

Höhenverlauf

Altitude vs Time

uPlot chart will show altitude changes over time

Zweizeiliger Elementsatz

1 56361U 23058AW 26062.01737774 .00000826 00000-0 68872-4 0 9992
2 56361 97.6056 63.7469 0001850 93.1589 266.9847 15.01264291157130
Epoch: 3. März 2026 • Age: 27 hours

Aktueller Status

Höhe 580.2 km
Geschwindigkeit 7.57 km/s
Subsatellitenpunkt -42.29°S, 31.01°E
Startdatum 27. Apr. 2023
Alter 2.8 years
Typ internet

Technische Details

Klassifizierung Payload
Masse 300.00 kg
Trockenmasse 260.00 kg
Gesamtmasse 300.00 kg
Länge 0.20 m
Durchmesser 2.80 m
Spannweite 9.00 m
Form Box + pan
Hersteller SPXS
Bus-Typ Starlink
Phasenstatus In Orbit
Besitzer/Staat SPXS/US

Große Konstellationen

Loading constellations...